Theta_e
311 311 312 312 312 313 313 313 313 313 313 314 313 314 315 314 313 312 313 313 313 313 314 314 313 314 316 318 317 316 321 321 320 318 319 313 314 311 308 312 310 310 310 306 305
310 310 310 310 311 311 311 312 312 312 313 313 313 314 314 315 314 312 312 312 313 313 313 314 316 316 319 318 316 318 320 320 317 316 317 314 314 314 312 312 311 310 307 302 303
309 309 309 309 309 309 310 310 311 311 312 312 314 313 313 314 316 315 312 312 312 313 313 312 313 315 318 317 317 316 320 316 316 315 314 315 313 312 314 315 315 315 314 304 303
310 309 309 309 309 309 309 309 309 310 310 311 314 313 313 315 318 312 312 312 312 312 312 312 315 318 320 319 315 318 315 315 316 314 313 314 312 312 312 316 312 312 310 305 305
310 310 311 310 310 310 309 308 308 309 309 310 313 313 314 317 317 313 313 312 312 312 312 313 317 317 321 316 315 317 315 314 315 313 313 310 313 314 313 313 312 307 305 306 305
310 310 310 311 310 310 309 309 308 308 308 309 313 313 314 315 313 313 312 311 311 311 310 311 315 314 316 317 317 314 314 315 313 313 313 313 315 310 315 308 310 307 307 307 306
310 310 310 310 310 310 309 309 308 308 307 310 313 313 314 315 313 312 310 310 310 310 311 309 311 314 315 314 311 312 316 316 314 313 313 311 315 314 315 306 309 307 308 306 306
311 310 309 309 309 308 308 308 308 307 308 313 312 314 316 313 313 311 310 309 309 309 309 308 309 312 313 311 312 315 314 319 315 313 312 313 317 317 314 309 312 311 308 305 304
311 310 309 307 306 307 306 307 307 308 312 313 313 314 316 313 312 312 309 309 308 308 308 308 310 313 312 317 318 317 319 318 316 312 313 314 316 316 311 308 311 312 310 306 304
310 310 309 307 304 305 305 306 307 312 314 313 312 315 312 313 311 311 308 308 309 310 311 312 313 316 315 318 316 318 318 317 316 314 311 314 314 315 314 312 312 313 313 308 304
310 310 310 308 304 306 306 307 311 311 311 315 313 313 309 311 311 310 307 308 309 310 313 312 316 317 317 317 316 315 316 317 318 311 312 314 314 314 314 313 313 313 313 310 305
311 310 310 310 308 309 308 310 311 308 309 309 308 308 307 311 312 311 307 312 312 314 311 314 315 316 313 312 314 315 317 319 316 310 309 312 312 312 312 312 312 313 313 311 306
311 311 311 310 310 309 307 308 309 309 313 312 309 310 310 309 311 311 308 309 313 312 313 315 315 310 312 313 314 315 317 318 316 310 308 308 312 311 310 308 309 309 310 309 306
312 311 311 311 310 311 308 307 308 307 312 310 308 310 309 309 309 303 304 308 309 313 311 313 311 312 313 314 314 318 314 313 312 313 316 308 315 314 312 310 310 312 310 307 305
313 312 312 311 311 312 307 307 308 302 312 308 306 306 307 310 307 306 302 305 311 309 311 314 310 311 314 315 312 316 308 310 309 311 309 313 312 312 306 310 312 312 313 309 307
314 312 312 311 310 310 309 307 305 309 308 308 310 310 312 309 307 305 306 304 305 309 309 312 306 309 313 305 307 304 308 307 305 308 315 313 313 312 312 311 311 312 311 308 306
315 313 313 311 312 311 308 307 312 308 304 307 311 311 311 312 310 308 308 308 312 313 314 311 310 306 306 310 306 307 313 318 322 319 318 309 309 312 311 311 311 313 313 307 305
317 314 314 312 310 310 306 312 310 311 309 307 310 311 313 311 311 309 309 312 308 309 312 314 315 308 307 313 316 310 315 321 326 319 318 306 311 313 311 311 311 307 307 303 303
318 315 313 312 309 309 307 312 310 311 309 308 310 312 313 312 310 310 311 313 313 309 314 314 315 305 304 305 310 309 312 312 318 306 315 314 315 314 311 309 307 307 306 306 304
316 314 313 313 309 308 309 310 310 309 306 309 310 311 310 311 310 311 311 311 312 309 311 313 313 307 301 302 301 306 307 312 313 322 320 314 314 314 313 312 310 307 307 308 304
317 315 314 313 309 310 311 310 309 308 307 309 310 310 309 310 311 310 311 310 310 309 309 311 313 309 304 306 310 305 308 307 308 314 317 316 314 309 310 311 311 310 310 310 307
316 318 310 309 312 312 312 310 307 309 307 308 308 309 309 308 309 310 310 310 310 309 310 311 314 315 312 303 301 307 310 310 313 314 311 314 315 310 310 311 310 311 309 307 306
316 313 307 310 315 313 312 313 310 311 309 310 310 310 308 308 308 309 310 309 308 310 311 309 313 318 315 306 301 306 306 307 310 312 314 315 314 310 310 309 308 309 310 306 305
315 313 308 308 312 314 314 315 314 310 311 308 309 310 310 311 309 310 310 308 308 310 311 311 314 315 313 312 307 308 307 306 308 312 313 313 312 312 311 310 310 310 306 306 306
315 313 307 307 308 312 314 315 317 315 311 310 310 310 311 312 310 311 312 311 305 306 308 310 314 315 315 314 313 313 310 308 308 309 311 312 311 311 311 311 311 310 309 308 308
315 310 307 310 309 310 311 314 315 316 316 314 313 314 310 311 312 317 314 311 311 308 309 307 314 313 313 312 312 313 312 312 312 311 310 309 308 309 309 309 309 309 308 307 307
308 311 309 308 309 309 310 311 313 313 314 314 314 312 313 313 311 311 312 312 312 312 312 309 312 315 317 314 313 315 313 313 312 312 311 312 311 310 310 309 309 309 308 307 306
Wind_Speed
12 13 14 15 16 17 17 17 17 18 18 13 7 5 4 4 2 4 4 5 3 2 1 5 2 4 2 2 1 1 3 4 3 5 2 6 9 5 1 5 5 8 4 2 15
11 12 12 13 14 16 16 17 17 16 15 16 10 6 6 5 4 7 5 4 2 2 2 6 4 7 3 2 1 3 3 3 1 3 3 5 9 5 6 8 8 8 11 6 22
11 12 13 12 13 15 16 17 16 17 16 15 11 6 3 4 3 4 10 4 1 1 1 3 5 3 3 1 1 1 3 1 3 5 4 4 5 5 7 12 14 15 13 16 24
12 14 14 15 15 16 16 16 17 17 17 16 11 6 1 2 5 6 10 6 3 3 4 3 2 3 3 3 2 3 4 3 1 2 4 5 3 5 14 18 2 6 6 20 21
14 14 15 17 17 17 18 19 18 18 18 16 11 4 2 3 7 9 10 7 5 4 3 3 2 3 3 4 2 5 3 4 4 4 6 3 10 9 15 17 11 5 8 16 19
16 16 17 17 18 19 19 20 21 20 19 17 9 4 3 6 4 9 9 7 6 6 4 3 3 2 2 3 4 2 4 7 5 5 6 6 6 3 5 3 10 11 14 15 19
18 19 19 19 20 20 20 20 22 23 22 14 6 6 3 9 5 7 8 6 5 5 5 3 5 2 5 2 1 1 6 7 9 4 5 4 8 12 17 6 9 13 14 16 19
19 20 19 20 21 22 21 22 22 23 21 7 3 4 6 3 6 6 8 6 5 5 6 7 5 5 1 3 1 3 3 4 5 7 2 4 15 10 4 9 14 15 14 16 20
19 19 19 20 20 20 22 22 23 21 10 2 3 4 6 2 3 7 8 6 7 7 7 7 3 2 3 3 5 5 10 9 5 9 3 11 16 5 6 8 16 18 17 16 17
15 18 19 20 18 19 22 21 15 5 2 3 2 2 3 3 4 6 7 11 3 5 3 1 2 4 3 7 12 11 7 8 10 5 9 11 21 22 22 16 25 25 19 18 18
13 15 19 20 17 16 20 7 3 2 1 5 2 3 1 3 5 3 5 7 4 2 7 1 6 16 17 17 13 7 8 16 15 4 5 16 20 25 24 21 26 25 21 18 21
12 13 16 19 16 12 7 3 2 1 8 4 6 7 6 4 2 6 10 9 7 10 7 3 15 17 0 6 9 8 13 20 13 2 6 14 21 24 24 26 25 25 23 16 16
12 12 14 20 15 7 3 2 1 1 5 6 5 4 2 9 6 5 13 4 7 9 14 16 9 2 8 8 11 11 17 14 10 6 7 12 17 7 8 10 14 21 19 14 16
13 11 11 17 4 8 1 2 3 1 5 5 5 3 2 3 4 1 3 1 4 9 9 9 3 8 7 11 12 13 9 11 8 5 11 4 19 11 9 11 13 21 12 12 15
14 12 10 10 6 1 2 2 4 1 8 1 3 1 2 3 4 0 1 2 8 8 7 6 8 9 10 9 11 5 2 4 3 8 6 12 10 9 2 6 18 20 10 15 14
16 12 11 6 4 4 2 4 1 3 10 3 3 4 3 3 1 3 2 1 2 4 5 7 0 4 4 3 1 9 3 2 1 3 9 16 14 9 5 6 8 12 10 9 12
21 18 15 9 2 2 4 3 4 9 3 6 7 6 3 6 6 8 7 9 8 6 10 4 7 3 3 4 2 5 4 6 6 5 12 3 8 20 15 14 13 19 9 8 9
25 25 22 16 10 7 6 4 15 8 14 3 4 5 9 12 8 10 6 8 12 5 2 6 14 13 12 15 7 12 8 6 11 13 21 7 11 14 10 14 17 8 5 5 8
29 28 22 24 16 10 3 10 15 11 8 9 3 6 8 5 5 7 13 9 10 20 14 8 16 3 1 1 4 8 8 3 3 2 7 12 24 9 7 10 8 14 12 14 11
26 17 19 29 24 14 4 23 12 10 8 7 19 16 17 16 9 11 11 6 8 15 18 3 10 3 3 1 1 4 4 4 3 6 16 24 29 18 10 15 9 11 15 15 10
20 4 14 35 23 4 10 15 11 7 7 13 21 17 16 16 15 12 15 5 9 7 10 3 6 3 5 12 16 6 6 5 3 5 9 18 18 3 5 5 11 13 14 11 12
6 5 29 43 7 4 12 10 4 6 6 9 4 12 23 16 14 13 16 15 14 12 12 8 3 10 21 3 2 9 15 18 9 11 9 13 26 8 5 4 4 6 6 8 9
3 2 16 24 10 11 12 13 7 12 12 9 14 12 10 14 11 16 18 8 12 14 12 10 5 7 13 5 2 8 10 10 17 15 29 13 23 16 19 6 5 8 10 7 11
2 4 3 2 5 18 20 20 16 8 13 6 4 3 1 10 12 14 14 4 5 8 3 10 7 13 20 22 1 5 14 19 23 18 22 25 30 36 34 22 23 18 12 15 15
4 4 7 6 11 16 15 8 21 14 12 9 5 21 22 19 23 19 27 20 4 3 2 6 14 14 21 24 23 24 19 19 26 28 26 29 25 31 32 26 26 20 16 20 19
4 3 4 4 16 25 22 17 27 25 21 14 18 22 21 26 23 23 23 21 17 4 6 4 18 18 27 29 32 34 21 33 32 34 25 24 27 35 35 31 29 33 25 28 25
8 13 3 10 12 13 22 28 27 26 22 27 28 19 21 24 31 33 27 19 7 15 17 9 8 11 22 25 23 14 33 35 41 38 32 30 34 36 34 29 31 32 23 24 26
Wind_Direction
17 16 15 15 14 14 15 17 18 14 12 13 360 269 275 331 313 233 232 205 199 278 217 174 121 149 139 105 58 225 234 244 226 196 153 161 204 166 151 206 208 201 241 100 163
4 4 1 2 2 3 4 6 8 8 5 2 357 334 259 273 296 243 223 196 204 238 180 190 164 160 150 109 97 241 253 250 218 191 235 197 223 196 204 203 226 226 216 169 168
350 349 347 348 350 351 353 354 357 359 356 353 345 339 296 269 266 216 187 189 199 198 170 151 129 184 166 178 144 188 268 193 232 233 219 225 228 204 234 239 236 224 215 186 182
337 338 337 336 339 340 341 344 346 348 349 346 337 323 246 184 240 182 178 180 174 159 146 155 164 169 180 204 159 241 245 236 270 190 190 221 155 223 226 248 0 270 212 185 190
323 325 324 327 327 331 332 334 336 338 340 340 326 293 184 225 251 188 187 190 186 180 151 170 185 165 217 188 196 228 212 226 253 252 240 199 240 252 246 248 240 244 195 198 202
317 315 318 317 321 324 326 327 328 328 331 331 311 238 175 240 214 188 196 192 199 174 148 166 176 178 145 203 225 172 257 262 265 249 238 235 247 220 247 203 222 225 225 214 211
317 314 313 315 316 318 321 321 323 322 324 322 287 203 217 260 206 196 193 200 203 187 142 138 130 190 148 202 84 326 290 275 224 223 235 212 255 235 255 197 234 227 228 221 218
316 314 314 312 314 315 316 319 318 315 316 307 224 182 252 231 201 192 171 142 123 116 118 125 116 97 277 125 146 239 249 256 160 176 167 210 277 254 269 229 245 239 228 219 217
311 310 313 315 317 316 312 317 315 308 303 228 182 187 261 193 194 200 185 148 120 94 89 109 75 104 163 223 256 213 272 231 269 210 159 213 278 261 205 233 263 258 246 230 220
315 318 319 314 319 314 311 320 308 295 189 166 121 232 170 215 163 169 173 157 123 125 125 156 126 227 201 205 258 263 247 254 263 185 215 232 258 278 274 255 263 270 261 242 221
311 320 323 327 323 323 326 340 294 208 190 225 186 272 201 153 163 178 161 133 123 184 216 91 227 240 246 229 268 266 259 261 267 200 245 256 262 268 280 275 263 270 263 248 233
302 314 323 332 330 323 332 297 49 46 297 244 249 271 225 176 254 197 167 185 179 220 145 176 239 253 49 214 227 233 260 264 280 250 220 275 273 273 268 268 270 271 269 251 240
294 305 318 333 323 332 327 217 207 141 250 283 224 239 216 172 222 207 183 161 199 201 204 228 255 79 197 207 206 228 236 256 267 323 237 293 275 241 256 264 271 261 259 250 228
292 297 313 334 322 335 311 229 185 177 261 242 226 213 124 170 243 54 200 211 200 240 192 240 243 207 198 230 204 240 231 245 266 295 282 5 291 279 252 245 264 273 239 222 217
277 283 290 329 298 261 283 218 171 163 275 42 178 63 110 206 91 124 185 161 214 184 176 222 180 190 207 229 178 250 110 173 209 257 316 257 268 280 167 241 259 262 250 222 210
250 264 262 285 264 247 289 161 178 204 242 245 168 188 170 197 164 122 148 18 23 171 245 261 118 217 212 82 156 135 120 145 154 258 254 259 225 275 242 212 246 265 229 203 199
240 244 234 232 204 144 172 190 218 232 45 197 204 191 216 186 200 188 170 180 190 178 215 193 219 167 177 133 118 195 180 277 256 225 264 152 234 262 283 242 233 256 251 188 183
236 234 228 216 228 233 151 187 237 189 210 99 163 157 201 168 213 186 177 220 230 216 219 241 255 183 183 218 204 184 217 204 261 277 288 113 251 278 227 252 247 269 260 195 213
240 221 212 208 195 188 200 215 240 230 185 177 105 206 218 223 210 185 215 230 210 192 210 210 256 99 230 93 181 164 199 234 288 105 280 259 262 239 186 251 250 253 246 241 233
212 205 215 195 182 152 197 242 232 203 158 183 218 196 230 218 190 193 198 190 230 198 226 256 262 119 124 155 51 225 140 139 200 260 258 276 281 279 239 244 212 237 239 240 223
212 207 175 183 163 167 212 237 251 237 198 196 230 239 234 238 214 218 241 210 198 199 206 204 217 197 151 205 191 171 204 227 311 227 254 265 270 102 171 263 207 219 232 240 227
224 221 169 162 182 203 226 232 207 247 241 258 237 251 244 227 238 235 243 225 178 160 170 207 208 234 239 147 309 252 232 215 225 228 235 259 270 118 58 146 183 235 242 236 233
225 155 183 175 189 210 224 238 266 233 232 214 231 221 215 235 235 235 244 196 177 173 171 170 207 241 255 213 179 212 210 232 242 258 248 236 252 255 270 266 240 246 253 258 235
238 198 165 230 264 219 219 225 229 210 243 234 285 36 212 242 234 253 249 201 198 208 351 176 172 217 239 251 99 191 228 222 223 234 252 242 260 274 274 272 279 270 245 241 241
211 217 169 183 235 236 226 228 238 240 226 205 222 225 234 248 248 252 260 250 191 176 221 183 234 236 249 261 274 278 270 251 234 242 243 257 258 261 273 276 272 273 273 272 267
262 162 172 209 220 217 223 222 229 239 230 231 225 231 232 241 243 259 245 249 238 199 215 203 244 247 252 261 263 258 260 262 266 258 252 254 262 263 269 279 282 275 269 273 271
314 264 245 180 195 208 223 226 231 236 241 236 234 234 233 228 226 240 251 257 195 232 228 211 224 220 240 232 251 256 241 249 256 262 257 255 255 269 267 264 261 271 273 266 266